Wind_Speed
15 10 10 13 24 17 15 17 15 10 4 4 8 10 20 18 14 10 10 14 10 10 23 17 12 9 7 5 5 5 5 5 6 6 9 8 8 7 7 7 8 11 13 14
14 7 5 9 8 11 18 6 7 7 0 4 6 4 20 19 14 12 11 9 9 11 15 16 12 12 6 7 3 4 5 5 6 5 6 3 3 3 6 7 9 10 11 13
11 14 9 11 10 12 7 14 16 10 7 8 11 16 12 15 15 13 13 13 9 12 17 15 17 14 12 11 6 4 3 3 4 4 5 7 2 5 9 10 11 8 8 10
8 15 5 12 13 8 0 8 13 16 17 10 22 5 13 12 10 12 13 13 14 15 11 15 17 16 10 12 9 7 3 1 3 4 4 3 9 8 7 8 9 6 4 5
14 11 6 13 1 11 12 10 12 18 11 6 16 8 10 11 13 16 15 13 12 13 15 16 18 22 16 16 11 10 5 3 1 1 3 7 6 8 11 9 8 8 3 5
14 4 6 13 9 8 9 6 5 6 3 5 18 12 6 10 4 3 18 14 13 11 12 15 20 23 16 15 12 12 8 5 3 1 1 1 3 3 4 8 10 7 9 7
16 14 7 3 15 9 19 17 2 3 5 4 2 9 9 11 9 3 1 16 14 10 13 14 15 19 20 17 14 13 11 8 5 4 3 1 2 5 8 3 9 11 10 9
10 5 11 7 15 9 7 1 6 8 11 7 6 4 4 4 5 4 2 1 17 15 12 15 17 20 20 19 15 10 13 8 9 6 4 2 2 6 5 6 6 9 11 9
15 5 13 11 14 5 2 2 9 11 14 13 2 7 6 14 8 7 3 2 6 13 8 14 22 19 19 21 18 13 11 11 9 7 6 5 3 3 5 4 4 8 9 9
14 3 14 16 13 13 12 9 11 5 3 9 14 8 5 13 9 5 6 5 4 9 8 6 21 19 19 19 17 13 12 12 11 10 9 8 5 5 4 6 7 5 8 8
10 7 2 6 5 12 11 14 6 2 2 5 7 9 6 17 11 14 6 6 7 9 10 10 19 22 18 19 17 16 13 11 11 11 9 8 6 6 7 7 8 6 9 10
9 4 11 14 4 8 4 13 7 2 6 12 14 1 7 2 11 7 17 3 7 8 8 13 21 23 17 18 16 20 14 12 12 13 11 10 9 8 9 10 9 9 10 11
6 5 8 14 16 10 6 17 4 6 6 11 12 3 7 8 18 18 22 29 3 2 4 5 16 19 18 15 14 14 13 9 8 8 10 12 12 12 11 11 11 9 11 12
4 6 9 12 16 14 7 13 9 8 4 18 10 13 14 14 13 16 15 25 6 9 7 6 6 17 20 18 16 11 9 7 6 7 7 6 7 8 9 10 11 12 12 13
1 6 11 16 19 21 11 19 18 16 16 14 13 16 16 12 12 15 19 12 7 5 6 5 6 5 19 18 14 12 8 6 4 6 7 7 8 9 9 10 11 12 13 14
6 6 11 15 17 10 11 19 21 7 10 13 14 13 14 8 3 7 23 4 13 17 16 3 5 10 13 19 14 11 8 5 6 7 8 9 9 7 8 10 12 13 15 17
7 6 9 14 6 11 9 15 10 9 10 10 10 14 14 13 17 15 14 11 12 13 12 14 6 10 12 11 14 9 10 8 7 7 9 11 10 10 10 11 13 13 15 16
6 6 8 11 14 14 5 7 10 9 11 13 9 12 12 15 14 14 13 11 11 11 11 11 13 16 12 8 10 8 6 7 6 7 9 11 12 11 11 11 13 15 16 19
8 7 9 9 9 8 18 7 3 2 3 11 10 10 11 9 10 9 5 10 9 7 10 12 13 15 13 7 6 5 3 4 4 7 9 11 12 11 10 12 15 17 19 21
5 6 8 11 14 16 23 18 25 30 3 4 5 7 9 9 5 7 8 7 6 8 8 8 11 10 9 6 5 3 3 5 6 8 8 9 10 10 12 15 20 22 24 26
3 3 16 7 11 9 11 7 7 4 6 5 4 6 7 7 6 6 6 6 8 8 8 8 9 9 8 6 4 1 3 6 7 8 9 10 10 11 16 23 26 27 26 27
8 7 3 4 6 9 6 5 8 9 10 2 5 7 5 8 7 4 8 6 4 4 5 6 7 8 6 5 4 1 1 5 7 8 9 13 14 15 19 24 26 28 29 28
12 10 11 6 4 9 6 16 8 7 3 4 7 6 6 6 7 3 6 7 6 5 2 2 7 6 4 4 1 3 6 7 8 10 15 15 16 17 21 24 26 29 30 28
16 6 3 14 8 12 15 17 18 9 5 7 5 6 9 8 8 9 8 7 7 6 5 1 0 6 4 3 20 22 13 11 13 17 17 17 20 22 21 27 26 26 25 23
5 9 8 9 10 11 20 26 31 12 7 10 7 8 11 11 12 11 11 6 6 5 6 5 6 7 21 19 18 3 15 16 14 14 15 18 18 20 23 21 23 25 24 30
12 4 3 4 7 6 9 16 29 8 9 11 12 10 10 9 8 11 9 16 13 16 23 23 20 18 15 15 14 13 15 17 18 17 18 20 20 22 23 24 22 25 27 27
Wind_Direction
234 184 254 166 208 257 47 46 357 323 98 286 274 154 168 179 204 205 172 184 192 188 136 156 158 151 146 129 82 49 47 23 5 27 24 25 14 49 22 42 32 22 15 16
278 269 265 346 326 335 20 54 224 250 237 296 251 221 161 168 191 200 191 226 193 150 148 157 164 164 178 131 117 69 42 30 13 40 35 352 333 18 29 22 58 31 20 16
303 283 33 306 307 15 324 323 321 352 325 213 263 257 166 162 179 197 201 189 226 159 161 166 172 175 180 159 144 118 60 35 25 348 26 353 281 339 28 4 32 8 21 18
265 287 356 289 41 151 14 258 304 354 343 30 339 327 156 161 181 193 204 203 194 172 164 165 171 168 177 153 148 156 129 52 74 11 38 10 340 24 4 12 7 348 19 37
287 302 341 334 187 315 327 2 53 4 2 68 288 293 124 154 197 205 201 206 203 168 173 169 175 167 170 153 171 159 149 149 106 124 29 6 29 359 4 7 321 356 55 62
273 298 294 305 315 303 326 79 74 300 304 61 256 240 133 200 148 308 185 188 197 169 184 165 178 145 150 153 166 160 166 173 183 205 240 28 1 356 331 328 325 356 2 43
256 258 240 327 286 36 306 345 337 268 224 188 297 289 84 60 53 52 119 171 168 163 165 161 142 145 148 159 162 173 176 181 188 201 210 241 300 276 290 318 16 333 352 11
277 249 309 301 272 306 40 311 27 301 336 328 75 87 118 69 84 66 14 273 166 174 182 164 162 158 162 164 169 179 164 184 189 201 197 208 281 325 331 35 1 330 325 355
275 31 315 277 262 289 315 275 297 311 328 303 220 156 339 318 145 111 146 184 177 173 178 157 161 165 155 155 165 182 185 178 180 201 199 218 230 277 299 303 314 325 332 343
263 209 218 272 317 264 257 5 334 77 30 341 319 44 180 266 63 95 146 172 214 146 154 189 146 142 143 158 163 185 183 196 194 203 212 224 206 254 269 294 270 273 312 302
251 271 244 162 223 4 32 287 57 74 281 249 315 33 36 18 76 16 337 171 180 181 198 180 141 140 157 159 171 185 188 187 192 201 214 218 235 256 271 280 295 269 312 298
242 289 288 289 216 206 220 336 36 273 313 318 303 328 323 102 72 117 266 213 200 207 193 150 146 145 165 168 184 178 187 204 203 196 202 219 227 243 265 275 281 293 297 302
349 260 270 273 269 74 294 287 199 131 84 246 251 350 247 76 42 7 339 316 186 182 135 131 142 151 163 175 179 170 176 206 215 199 215 218 224 233 248 262 277 280 290 289
17 300 294 283 303 290 223 261 250 214 193 261 322 323 75 82 93 122 242 273 273 161 148 183 175 159 166 169 164 191 190 213 199 218 236 245 230 251 264 270 274 279 284 288
245 279 279 281 281 288 195 258 234 234 234 257 335 341 120 150 182 209 227 302 211 131 142 149 168 154 149 153 167 179 190 185 247 248 245 249 255 258 260 265 270 277 278 281
168 273 287 288 287 351 332 320 299 351 357 335 342 333 27 177 149 40 69 324 338 10 14 91 184 154 144 151 166 171 171 195 221 259 262 264 259 266 267 265 270 274 275 276
231 260 285 291 340 295 261 244 274 15 354 340 335 3 33 33 62 57 65 38 29 23 7 4 37 122 121 137 152 156 173 201 224 251 269 269 268 264 261 261 267 269 272 277
296 249 275 283 288 283 294 91 82 46 335 354 349 354 8 89 82 59 32 31 28 26 25 4 63 93 105 103 135 156 188 188 229 249 270 284 281 275 273 266 264 269 271 274
209 258 277 274 271 281 292 43 268 174 345 46 30 1 353 21 102 60 65 55 41 40 47 42 56 85 97 116 136 153 198 263 251 261 266 276 284 287 287 282 283 281 276 274
236 194 263 270 291 302 0 45 35 336 206 24 328 12 13 345 33 77 73 91 79 70 81 91 97 103 113 127 131 149 250 275 269 270 275 281 283 290 292 287 278 274 274 275
58 316 256 260 271 257 36 121 121 52 328 189 43 29 30 52 75 117 112 87 102 105 106 108 114 121 131 130 129 42 331 311 313 305 295 292 289 285 283 279 280 280 275 274
238 254 199 111 246 254 12 316 115 225 268 63 57 73 13 111 135 162 111 117 119 110 126 119 122 122 133 128 122 168 323 317 302 301 306 298 293 287 284 287 293 289 283 279
335 27 334 315 269 201 206 216 226 243 275 42 67 38 40 25 12 150 157 150 157 157 94 155 119 126 124 120 131 14 355 328 325 325 315 299 301 301 303 301 296 292 299 304
249 68 357 332 111 182 201 227 242 165 124 101 92 64 52 39 18 3 7 145 148 155 134 164 78 133 146 117 44 344 327 7 349 327 331 331 323 313 315 318 315 311 316 323
256 139 182 232 288 316 43 44 321 75 124 119 106 68 43 35 21 17 14 24 98 112 133 96 32 60 61 52 65 305 5 359 329 332 335 337 340 334 327 337 337 337 342 331
312 18 303 341 14 29 158 161 215 105 80 72 62 55 58 55 47 42 47 39 32 63 62 66 58 56 55 56 50 16 8 4 1 3 355 348 348 347 342 336 336 336 331 335
Height
769 790 799 786 794 778 776 788 807 784 778 788 784 788 798 801 804 805 807 812 811 815 824 832 835 842 847 849 851 851 851 850 849 849 848 847 846 845 844 844 844 844 843 841
776 791 770 763 764 772 783 801 810 781 777 785 782 788 784 792 800 802 804 806 805 813 821 829 834 837 842 846 849 851 852 851 850 849 849 848 847 845 845 844 844 843 844 842
790 778 761 770 773 795 794 802 795 793 778 774 787 788 782 784 789 793 795 799 800 807 815 820 825 833 837 842 846 849 851 851 850 849 849 847 844 845 845 845 843 844 843 843
782 761 772 777 787 784 805 782 780 783 793 847 819 815 789 790 796 792 790 790 795 800 807 815 821 828 833 839 844 846 848 849 849 848 848 848 847 845 845 844 844 843 842 841
786 774 776 784 790 775 790 773 791 800 812 848 858 851 791 788 799 791 785 784 786 790 798 806 813 818 826 834 840 844 847 848 849 848 848 848 846 846 846 845 844 843 841 840
777 759 772 776 771 769 768 785 795 802 815 873 850 845 805 800 782 776 774 777 780 785 790 800 807 814 822 830 836 840 844 846 847 848 848 847 847 846 845 844 843 843 842 840
780 780 764 769 784 772 779 795 824 850 829 856 797 800 790 775 769 769 769 772 776 782 788 796 805 811 816 827 831 836 839 842 845 845 846 847 846 845 843 842 842 842 842 840
804 818 786 772 781 790 795 801 834 851 836 819 791 821 809 771 766 766 766 764 769 777 780 791 800 808 814 821 827 832 835 838 841 843 844 844 845 844 843 842 841 842 841 840
807 815 782 770 767 774 802 809 784 806 800 810 799 799 793 771 768 767 769 769 767 772 777 785 795 803 809 817 821 827 830 833 837 840 841 842 842 843 842 842 841 841 840 839
784 817 791 782 770 768 780 775 815 823 869 868 830 814 823 793 775 772 771 774 769 768 774 779 790 798 807 813 818 824 827 830 832 836 837 838 839 840 840 840 839 838 837 837
772 789 797 788 794 800 812 818 822 827 832 846 833 822 785 788 776 782 771 767 769 768 770 774 786 795 802 808 814 820 823 826 829 831 834 835 837 838 838 838 837 835 835 834
770 790 810 796 771 771 787 796 805 828 844 832 813 809 778 775 781 797 782 767 760 761 763 769 781 792 799 803 809 815 819 821 823 826 829 832 834 835 836 836 835 834 832 831
779 796 821 812 789 788 805 795 800 817 845 866 856 808 766 780 792 805 802 795 762 762 765 769 777 788 796 801 807 813 817 820 822 824 826 828 830 831 831 832 832 831 830 828
781 796 807 823 805 786 800 792 787 800 830 831 795 789 785 802 809 810 806 782 760 760 766 770 774 782 790 798 804 811 815 819 821 823 825 826 827 828 828 828 828 828 827 826
785 810 798 790 781 774 781 781 780 788 787 811 788 787 797 797 791 791 788 766 745 757 762 769 773 776 784 795 803 809 814 818 821 822 823 823 825 825 825 826 826 825 824 823
782 809 796 798 779 780 790 780 773 769 775 780 779 782 762 779 777 784 806 815 791 772 767 770 771 776 784 793 801 808 814 818 820 822 822 822 822 822 822 822 822 821 820 819
788 797 803 812 784 787 805 784 775 774 773 779 794 779 763 769 781 783 788 788 784 777 775 773 771 777 785 792 799 806 811 815 818 820 821 821 819 819 819 818 818 817 816 815
790 794 797 809 793 824 773 757 766 779 776 771 771 771 766 772 781 780 779 780 780 780 779 778 780 786 791 796 800 806 810 813 817 818 818 819 817 816 815 815 814 812 811 809
776 792 805 812 809 798 785 777 783 783 788 771 777 774 770 766 772 786 780 781 784 784 785 788 790 793 796 799 802 806 810 813 814 815 815 814 814 813 812 812 812 810 807 803
773 780 803 805 818 828 796 789 788 809 799 776 776 776 775 774 791 793 783 786 789 789 790 792 793 796 799 802 805 809 811 811 811 811 811 810 810 810 810 809 805 802 800 798
817 826 807 810 810 792 804 804 799 836 801 774 772 772 776 784 788 786 786 789 791 792 793 795 796 798 801 804 808 811 812 812 812 810 808 808 807 806 805 802 799 797 794 791
794 802 815 849 863 831 802 795 812 804 785 775 772 772 775 776 779 781 784 790 794 796 797 797 799 802 804 806 809 809 810 811 810 810 808 806 805 803 801 799 797 794 790 785
823 811 809 796 798 790 783 784 777 774 777 776 777 775 774 775 775 776 780 785 790 794 798 799 802 805 808 810 810 810 810 809 809 809 806 803 801 800 797 796 793 789 786 782
812 796 806 800 784 786 781 774 773 762 773 774 775 778 777 779 779 780 780 782 787 792 797 800 803 806 809 812 817 818 814 809 809 809 805 801 799 796 794 792 790 787 783 779
769 787 806 796 773 768 791 785 780 751 771 773 775 779 780 780 783 784 785 783 787 790 795 800 803 806 813 813 811 816 816 813 812 807 803 801 798 796 793 790 787 784 780 776
775 777 785 786 774 774 788 783 787 770 776 774 779 783 783 784 787 788 788 791 792 794 799 804 808 811 815 817 817 820 818 815 811 807 805 803 800 797 794 790 785 783 778 773